User: anonymous   Login
Location: Holmes Observatory
(37.1039°N, 122.0513°W)
Time: 16:54:20
(UTC-07:00)
Language:

Cosmos 921 Rocket - Orbit

View from above orbital plane
View from above orbital plane
View from above satellite
View from above satellite

Ground track
Ground track

The orbit data is extracted from the following two-line orbital elements,

1 10096U 77055B   16272.04147064  .00000175  00000-0  20667-4 0  9992
2 10096  75.8326 105.2062 0042684 155.2800 205.0450 14.88495688123249
Epoch (UTC): 28 September 2016 00:59:43
Eccentricity: 0.0042684
inclination: 75.8326°
perigee height: 573 km
apogee height: 632 km
right ascension of ascending node: 105.2062°
argument of perigee: 155.2800°
revolutions per day: 14.88495688
mean anomaly at epoch: 205.0450°
orbit number at epoch: 12324

The dashed part of the orbit path shows where the satellite is in the earth's shadow,  

DLR